Simultaneous Nadir Overpasses (SNOs) Predictions

Prediction of SNOs between LANDSAT-8 and NOAA-19 Satellite Orbit:

Table of predicted SNOs for the next 14.0 days since TLE Epoch: 7/11/2020
Index Date (LANDSAT-8) Time (LANDSAT-8) Lat,Lon (LANDSAT-8) SZA (LANDSAT-8 ) Date (NOAA-19) Time (NOAA-19) Lat,Lon (NOAA-19) SZA (NOAA-19 ) Distance(km) Time Diff (sec)
1 07/12/2020 17:19:07 -79.82, 126.44 121.05 07/12/2020 17:18:46 -79.80, 126.52 121.07 3.00 21
2 07/12/2020 18:08:34 79.78, -66.18 58.91 07/12/2020 18:09:41 79.79, -66.13 58.94 1.07 67
3 07/14/2020 22:52:51 79.83,-136.89 59.31 07/14/2020 22:51:58 79.80,-136.79 59.28 3.50 53
4 07/14/2020 23:42:19 -79.80, 30.49 120.74 07/14/2020 23:43:03 -79.79, 30.57 120.72 1.71 44
5 07/17/2020 04:26:37 -79.81, -40.50 120.36 07/17/2020 04:25:24 -79.91, -41.29 120.36 19.02 73
6 07/17/2020 05:16:03 79.81, 127.13 59.64 07/17/2020 05:16:15 79.81, 127.21 59.65 1.62 12
7 07/19/2020 10:49:48 -79.82,-136.19 119.94 07/19/2020 10:49:37 -79.81,-136.08 119.95 2.52 11
8 07/19/2020 11:39:19 79.64, 30.05 59.79 07/19/2020 11:40:24 79.59, 33.58 60.07 70.86 65
9 07/21/2020 16:23:32 79.82, -39.60 60.49 07/21/2020 16:22:49 79.82, -39.46 60.49 2.70 43
10 07/21/2020 17:13:00 -79.80, 127.82 119.55 07/21/2020 17:13:54 -79.81, 127.88 119.51 2.32 54
11 07/23/2020 21:57:17 -79.84, 57.07 119.04 07/23/2020 21:56:11 -79.84, 57.16 119.06 1.62 66
